This demonstration page uses our WeatherBlox Daily Observations layout. Learn more.

Left ArrowRight Arrow

47.50024, -111.30081

Hourly Observations for March 19, 2017

Temp ( °F °C ) Dew Point ( °F °C ) Humidity (%) Winds ( mph kmh ) Pressure ( in mb ) Visibility ( mi km ) Precip ( " mm )
12:53 am 00:53 Cloudy 51 10.6 34 1.1 52 52 SSW 25 41 29.76 1008 10 16 0.00 0.00
1:53 am 01:53 Cloudy 50 10 32 0 50 50 SSW 15 24 29.76 1008 10 16 0.00 0.00
2:53 am 02:53 Mostly Cloudy 51 10.6 28 -2.2 41 41 SW 28 44 29.77 1008 10 16 0.00 0.00
3:53 am 03:53 Partly Cloudy 48 8.9 25 -3.9 41 41 SSW 23 37 29.80 1009 10 16 0.00 0.00
4:53 am 04:53 Clear 47 8.3 21 -6.1 36 36 SSW 23 37 29.82 1010 10 16 0.00 0.00
5:53 am 05:53 Clear 46 7.8 23 -5 40 40 SW 18 30 29.86 1011 10 16 0.00 0.00
6:53 am 06:53 Clear 44 6.7 24 -4.4 45 45 WSW 17 28 29.88 1012 10 16 0.00 0.00
7:53 am 07:53 Sunny 43 6.1 25 -3.9 49 49 SW 17 28 29.91 1013 10 16 0.00 0.00
8:53 am 08:53 Sunny 44 6.7 26 -3.3 49 49 SW 13 20 29.95 1014 10 16 0.00 0.00
9:53 am 09:53 Sunny 48 8.9 26 -3.3 42 42 SW 13 20 29.97 1015 10 16 0.00 0.00
10:53 am 10:53 Sunny 53 11.7 10 -12.2 18 18 WSW 17 28 29.98 1015 10 16 0.00 0.00
11:53 am 11:53 Sunny 55 12.8 9 -12.8 16 16 WSW 17 28 29.97 1015 10 16 0.00 0.00
12:53 pm 12:53 Sunny 56 13.3 9 -12.8 15 15 WSW 16 26 29.98 1015 10 16 0.00 0.00
1:53 pm 13:53 Sunny 57 13.9 13 -10.6 17 17 W 22 35 29.96 1015 10 16 0.00 0.00
2:53 pm 14:53 Sunny 57 13.9 9 -12.8 15 15 W 21 33 29.96 1015 10 16 0.00 0.00
3:53 pm 15:53 Sunny 59 15 11 -11.7 15 15 W 20 31 29.96 1014 10 16 0.00 0.00
4:53 pm 16:53 Sunny 55 12.8 14 -10 20 20 WSW 20 31 29.98 1015 10 16 0.00 0.00
5:53 pm 17:53 Sunny 54 12.2 10 -12.2 17 17 W 17 28 30.00 1016 10 16 0.00 0.00
6:51 pm 18:51 Sunny 48 9 16 -9 27 27 NNE 17 28 30.00 1016 10 16 0.00 0.00
6:53 pm 18:53 Sunny 49 9.4 16 -8.9 27 27 NNE 15 24 30.06 1018 10 16 0.00 0.00
7:53 pm 19:53 Clear 41 5 15 -9.4 35 35 N 10 17 30.11 1020 10 16 0.00 0.00
8:53 pm 20:53 Clear 39 3.9 15 -9.4 38 38 NNE 9 15 30.14 1021 10 16 0.00 0.00
9:53 pm 21:53 Clear 38 3.3 14 -10 37 37 N 9 15 30.16 1021 10 16 0.00 0.00
10:53 pm 22:53 Clear 36 2.2 12 -11.1 37 37 N 6 9 30.16 1021 10 16 0.00 0.00
11:53 pm 23:53 Clear 32 0 13 -10.6 45 45 Calm 30.18 1022 10 16 0.00 0.00

Powered by AerisWeather